User: anonymous   Login
Location: Unspecified
(0.0000°N, 0.0000°E)
Time: 23:21:58
(UTC+02:00)
Language:

Cosmos 2279 Rocket - Orbit

View from above orbital plane
View from above orbital plane
View from above satellite
View from above satellite

Ground track
Ground track

The orbit data is extracted from the following two-line orbital elements,

1 23093U 94024B   17263.87018342 -.00000031 +00000-0 -46074-4 0  9999
2 23093 082.9470 043.3198 0011416 096.0412 264.2047 13.77735238644366
Epoch (UTC): 20 September 2017 20:53:03
Eccentricity: 0.0011416
inclination: 82.9470°
perigee height: 963 km
apogee height: 980 km
right ascension of ascending node: 43.3198°
argument of perigee: 96.0412°
revolutions per day: 13.77735238
mean anomaly at epoch: 264.2047°
orbit number at epoch: 64436

The dashed part of the orbit path shows where the satellite is in the earth's shadow,  

DLR